TimeCST,TemperatureF,Dew PointF,Humidity,Sea Level PressureIn,VisibilityMPH,Wind Direction,Wind SpeedMPH,Gust SpeedMPH,PrecipitationIn,Events,Conditions,WindDirDegrees,DateUTC
12:53 AM,27.0,14.0,58,30.49,10.0,WNW,11.5,-,N/A,,Clear,290,2012-11-23 06:53:00
1:53 AM,24.1,12.9,62,30.52,10.0,NW,6.9,-,N/A,,Clear,320,2012-11-23 07:53:00
2:53 AM,19.9,12.0,71,30.54,10.0,West,5.8,-,N/A,,Clear,270,2012-11-23 08:53:00
3:53 AM,21.9,14.0,72,30.56,10.0,WNW,8.1,-,N/A,,Clear,300,2012-11-23 09:53:00
4:53 AM,19.9,14.0,78,30.58,10.0,SW,5.8,-,N/A,,Clear,230,2012-11-23 10:53:00
5:53 AM,16.0,10.9,81,30.62,10.0,West,4.6,-,N/A,,Clear,280,2012-11-23 11:53:00
6:53 AM,19.0,12.9,77,30.63,10.0,WNW,8.1,-,N/A,,Clear,300,2012-11-23 12:53:00
7:53 AM,17.1,12.0,81,30.65,10.0,West,9.2,-,N/A,,Unknown,270,2012-11-23 13:53:00
8:53 AM,21.9,14.0,72,30.66,10.0,NW,8.1,-,N/A,,Clear,310,2012-11-23 14:53:00
9:53 AM,30.0,15.1,54,30.66,-9999.0,North,-9999.0,-,N/A,,Unknown,0,2012-11-23 15:53:00
10:53 AM,34.0,15.1,46,30.65,10.0,NNW,9.2,-,N/A,,Clear,340,2012-11-23 16:53:00
11:53 AM,37.0,16.0,42,30.61,10.0,NW,9.2,-,N/A,,Clear,310,2012-11-23 17:53:00
12:53 PM,39.9,16.0,38,30.58,10.0,NW,8.1,-,N/A,,Clear,310,2012-11-23 18:53:00
1:53 PM,42.1,17.1,37,30.55,10.0,NW,4.6,-,N/A,,Clear,320,2012-11-23 19:53:00
2:53 PM,43.0,17.1,35,30.53,10.0,SSW,3.5,-,N/A,,Unknown,210,2012-11-23 20:53:00
3:53 PM,44.1,16.0,32,30.51,10.0,SW,4.6,-,N/A,,Clear,230,2012-11-23 21:53:00
4:53 PM,42.1,16.0,35,30.49,10.0,Calm,Calm,-,N/A,,Clear,0,2012-11-23 22:53:00
5:53 PM,36.0,15.1,43,30.49,10.0,East,5.8,-,N/A,,Clear,90,2012-11-23 23:53:00
6:53 PM,33.1,14.0,46,30.46,10.0,SE,6.9,-,N/A,,Clear,140,2012-11-24 00:53:00
7:53 PM,35.1,15.1,44,30.46,10.0,SSE,4.6,-,N/A,,Clear,160,2012-11-24 01:53:00
8:53 PM,30.9,14.0,50,30.43,10.0,South,5.8,-,N/A,,Clear,180,2012-11-24 02:53:00
9:53 PM,28.9,14.0,54,30.40,10.0,South,5.8,-,N/A,,Clear,190,2012-11-24 03:53:00
10:53 PM,32.0,15.1,50,30.36,10.0,Variable,3.5,-,N/A,,Clear,0,2012-11-24 04:53:00
11:53 PM,30.0,15.1,54,30.34,10.0,South,9.2,-,N/A,,Clear,190,2012-11-24 05:53:00